Tracking 19576 objects as of 17-Feb-2019
HD Live streaming from Space Station
objects crossing your sky now

COSMOS 1823 DEB

Track COSMOS 1823 DEB now!
10-day predictions


NORAD ID: 39823
Int'l Code: 1987-020EX
Perigee: 1,453.8 km
Apogee: 1,539.2 km
Inclination: 73.7 °
Period: 115.7 minutes
Semi major axis: 7867 km
RCS: 0.0104 m2 (small)
Launch date: February 20, 1987
Source: Commonwealth of Independent States (former USSR) (CIS)
Launch site: PLESETSK MISSILE AND SPACE COMPLEX (PKMTR)

Note: This is SATELLITE DEBRIS
aabbcc
Your satellite tracking list
Your tracking list is empty




NASA's NSSDC Master Catalog

Two Line Element Set (TLE):
1 39823U 87020EX  19043.67697507 +.00000142 +00000-0 +11283-2 0  9990
2 39823 073.7102 132.6233 0054249 317.1637 201.0296 12.44078162693585
Source of the keplerian elements: AFSPC